Regional Weather Roundup
Issued by NWS Charleston, SC

Current Version | Previous Version | Text Only | Print | Product List | Glossary Off
Versions: 1 2 3 4 5 6 7 8 9 10 11 12 13 14 15 16 17 18 19 20 21 22 23 24 25 26 27 28 29 30 31 32 33 34 35 36 37 38 39 40 41 42 43 44 45 46 47 48 49 50
051 ASUS42 KCHS 170127 RWRCHS REGIONAL WEATHER ROUNDUP NATIONAL WEATHER SERVICE CHARLESTON SC 900 PM EDT MON OCT 16 2017 NOTE: "FAIR" INDICATES FEW OR NO CLOUDS BELOW 12,000 FEET WITH NO SIGNIFICANT WEATHER AND/OR OBSTRUCTIONS TO VISIBILITY. NOT ALL STATIONS ARE QUALITY CONTROLLED. USE DATA WITH CAUTION... ESPECIALLY DEWPOINT OBSERVATIONS. SCZ027-030-031-034>040-042>050-170200- ...SOUTHEAST SOUTH CAROLINA... CITY SKY/WX TMP DP RH WIND PRES REMARKS N CHARLESTON CLOUDY 62 57 83 NE15G29 30.10R WATERFRONT PRK NOT AVBL JOHNS ISLAND CLOUDY 64 59 82 N14G23 30.10R PINOPOLIS N/A 64 59 82 NE16 30.02R MONCKS CORNER FAIR 61 55 82 NE9G20 30.13R SUMMERVILLE FAIR 63 55 77 N9 30.13R BEAUFORT MCAS CLOUDY 65 60 84 N13G28 30.10R BEAUFORT ARPT CLOUDY 64 59 82 NE23 30.10R HILTON HEAD IS CLOUDY 66 61 82 N24G31 30.08R WALTERBORO CLEAR 61 54 77 N7 30.13R ALLENDALE NOT AVBL ...SOUTHERN MIDLANDS AND PEE DEE... CITY SKY/WX TMP DP RH WIND PRES REMARKS GEORGETOWN CLOUDY 61 55 82 N13 30.12R KINGSTREE FAIR 59 55 88 N5 30.15R ORANGEBURG PTCLDY 62 53 72 NE9 30.14R BARNWELL N/A 63 57 82 NE7 30.15R AIKEN FAIR 57 54 88 NE6 30.20R MANNING FOG 59 57 94 MISG 30.14R VSB<1/4 COLUMBIA CLEAR 63 47 55 NE8 30.16R SUMTER PTCLDY 61 50 67 N14 30.13R FLORENCE PTCLDY 59 57 93 NE7 30.16R MYRTLE BEACH CLOUDY 61 54 77 N15 30.12R N MYRTLE BEACH CLOUDY 61 53 75 N14G24 30.10R $$ GAZ063-065-086>088-099>101-113>116-118-119-134>141-150-170200- ...SOUTHEAST GEORGIA... CITY SKY/WX TMP DP RH WIND PRES REMARKS SAVANNAH ARPT CLOUDY 67 57 70 N17G30 30.08R HUNTER AAF CLOUDY 67 62 85 NE17G24 30.04R FORT STEWART CLOUDY 72 66 83 NE17G28 30.04R STATESBORO CLEAR 67 52 58 NE15G22 30.12R SYLVANIA CLOUDY 65 56 72 NE12G18 30.13R CLAXTON CLOUDY 71 61 71 N15G21 30.09R ...CSRA...CENTRAL AND FAR SOUTHEAST GEORGIA... CITY SKY/WX TMP DP RH WIND PRES REMARKS THOMSON CLEAR 65 50 58 E15 30.21R AUGUSTA-BUSH CLEAR 67 57 70 NE9 30.14R AUGUSTA-DANIEL PTCLDY 67 58 72 NE7 30.15R SWAINSBORO FAIR 68 61 77 NE13G21 30.12R VIDALIA MOCLDY 72 63 73 NE17G29 30.09R EASTMAN FAIR 64 49 57 CALM 30.11R HAZLEHURST CLOUDY 72 53 51 N7 30.06R ALMA CLOUDY 75 64 68 N7 30.02R WAYCROSS CLOUDY 74 68 80 N8 30.02R JESUP NOT AVBL BAXLEY CLOUDY 70 63 78 N8 30.04R BRUNSWICK CLOUDY 73 70 88 CALM 30.01R SAINT SIMONS CLOUDY 75 72 90 CALM 29.99S $$ SCZ027-028-034-036>038-045-046-048>050-GAZ119-141-170200- ...LAKE AND SUPPLEMENTAL COASTAL OBSERVATIONS... STATION/POSITION TIME TEMP WIND PRES WAVE SWELL AIR SEA DIR/SP/G HT/PER HT/PER/DIR (UTC) (F) (DEG/KT/KT) (MB) (FT/S) (FT/S/D) WINYAH BAY 0045 62 30/ 10 1019.0R LAKE MURRAY 0020 64 40/ 4/ 8 1020.3R ACE BASIN NERRS 0045 65 360/ 5 1018.0R FORT PULASKI 0100 67 80 30/ 18/ 24 1018.3 SAPELO ISLAND 0100 76 20/ 8 1016.0 $$ ANZ835-935-AMZ111-154-330-350-352-354-370-450-454-472-170200- ...C-MAN AND BUOY OBSERVATIONS... STATION/POSITION TIME TEMP WIND PRES WAVE SWELL AIR SEA DIR/SP/G HT/PER HT/PER/DIR (UTC) (F) (DEG/KT/KT) (MB) (FT/S) (FT/S/D) BUOY 41004 0100 71 81 10/ 27/ 33 1016.6 BUOY 41008 0050 77 80 50/ 6/ 6 1015.2R 2/ 9 2/ 90/ 9 FOLLY BEACH CMAN 0100 64 10/ 20/ 25 1019.1R CAPERS NEARSHORE 0108 64 78 30/ 25/ 37 1017.9R FRIPP NEARSHORE 0108 68 20/ 23/ 29 N/A STATION/POSITION TIME TEMP WIND PRES WAVE SWELL AIR SEA DIR/SP/G HT/PER HT/PER/DIR (UTC) (F) (DEG/KT/KT) (MB) (FT/S) (FT/S/D) 5E ST. MARYS GA 0100 81 N/A 3/10 FRYING PAN BUOY 0100 68 79 10/ 27/ 35 1017.2 BUOY 41025 0050 66 82 360/ 29/ 33 1016.7R 8/ 7 2/110/11 CAPE LOOKOUT NC 0100 62 360/ 26/ 30 1018.3R BUOY 41002 0050 78 79 CALM / 2 1014.5R 4/10 3/120/10 BUOY 41010 NOT AVBL ST AUGUSTINE FL 0100 80 83 90/ 9/ 10 1015.2R $$

USA.gov is the U.S. government's official web portal to all federal, state and local government web resources and services.